Wind_Speed
46 46 46 45 45 45 44 45 46 48 50 52 55 57 60 62 64 65 66 67 67 67 65 64 62 61 61 61 62 63 64 65 65 65 67 70 72 72 71 68 65 61 58
48 48 48 48 47 47 47 48 49 51 53 55 57 59 62 63 65 65 65 65 64 63 61 60 60 60 61 62 63 64 65 66 67 66 65 65 64 61 57 54 50 47 44
49 49 50 49 49 50 50 51 52 53 55 57 59 60 62 63 63 63 63 62 60 60 59 59 59 60 61 62 63 64 65 65 65 63 58 54 50 46 43 40 38 36 33
51 52 52 52 52 52 52 53 54 55 56 58 59 60 61 61 61 61 60 59 59 59 58 59 59 60 61 62 62 63 62 59 56 50 44 39 36 34 32 30 28 27 26
53 53 53 53 52 52 53 54 55 56 57 58 58 59 59 59 58 58 57 57 58 57 58 59 60 60 60 60 59 57 53 48 42 36 32 30 29 27 25 24 22 23 24
55 53 52 51 51 52 52 53 54 55 55 55 55 56 56 56 56 55 56 57 57 57 57 58 58 57 56 54 51 47 42 36 30 26 24 24 23 22 21 21 20 21 22
52 51 51 50 50 50 51 52 52 52 53 53 53 53 53 53 54 55 55 55 55 55 54 54 53 51 48 43 39 35 31 26 22 20 20 19 19 19 20 20 21 21 21
50 50 49 49 49 49 49 49 49 50 49 50 50 50 51 52 52 52 52 53 53 52 50 48 45 41 37 32 27 25 22 20 19 18 18 18 19 20 21 21 21 21 21
48 48 47 47 47 46 46 47 47 47 47 48 49 49 50 50 50 49 49 49 47 45 43 40 36 31 26 21 19 17 16 16 16 17 18 19 21 22 22 22 21 20 19
46 46 45 45 44 44 45 45 45 46 46 47 47 47 47 47 47 46 43 41 39 37 35 32 27 21 16 14 13 12 13 14 15 17 20 21 22 22 21 20 18 17 16
44 43 42 42 42 42 43 43 44 44 45 45 45 45 44 43 41 38 35 33 31 29 28 24 19 14 11 10 10 10 12 13 16 18 20 20 20 19 18 16 15 15 15
40 40 40 40 40 41 41 42 42 43 43 42 42 40 39 36 33 31 29 27 25 23 20 15 11 9 8 8 9 11 12 15 17 19 19 19 18 17 16 16 15 15 16
36 37 38 38 39 39 39 40 40 40 39 38 36 34 32 30 28 27 25 22 19 15 11 7 6 6 7 8 9 11 13 15 17 18 18 17 17 16 16 16 16 16 17
34 35 35 36 37 37 38 37 37 35 33 31 30 28 26 25 24 22 19 14 9 6 3 3 5 6 7 8 9 11 13 15 17 17 17 17 17 17 17 17 17 18 18
31 33 34 35 35 35 34 32 31 29 27 26 25 23 22 21 19 15 11 6 2 1 3 5 6 6 7 8 10 12 14 16 17 18 18 19 19 18 18 18 18 19 20
31 31 31 31 31 30 29 27 26 24 23 22 21 19 17 15 12 8 3 1 4 5 5 6 6 7 7 8 10 12 14 15 17 18 20 21 21 20 19 19 19 20 21
28 28 27 27 26 25 24 23 21 20 19 17 15 13 11 7 4 1 4 7 8 7 7 7 7 7 8 9 10 12 13 15 17 19 20 22 23 23 22 21 21 21 22
24 24 23 22 22 21 19 18 16 15 13 12 10 8 5 3 5 7 10 10 9 8 8 8 8 8 9 10 11 12 13 15 17 19 21 22 24 24 24 24 23 23 23
21 20 19 19 18 17 15 14 12 10 9 7 6 6 7 9 11 12 12 11 10 9 9 8 9 9 10 11 12 13 14 15 16 18 20 22 24 25 25 25 24 24 24
18 17 17 16 15 14 12 10 9 8 7 8 8 10 11 13 14 13 12 11 10 10 9 9 9 9 10 11 12 13 14 15 16 17 19 21 22 24 25 26 26 26 26
17 16 15 14 13 12 11 11 10 9 10 11 12 13 15 15 14 13 12 11 11 10 9 9 10 10 11 12 13 14 15 16 17 17 18 20 22 23 25 26 26 26 27
18 16 14 13 13 12 12 12 13 13 14 15 15 16 15 14 13 12 11 11 11 10 10 10 10 10 11 12 13 14 15 17 18 18 19 20 21 23 25 26 26 26 27
19 17 16 14 14 14 14 14 15 15 16 16 16 15 14 13 12 11 10 10 10 10 10 10 10 11 11 12 14 15 16 17 18 19 19 20 21 22 24 25 25 26 26
22 20 18 16 15 15 16 16 16 16 16 16 15 15 13 12 11 11 11 10 10 10 10 10 10 11 11 12 14 15 16 17 18 19 19 20 20 21 22 23 23 24 24
24 23 21 19 17 16 16 16 16 16 15 15 14 13 13 12 12 11 11 11 11 10 10 10 10 11 11 12 14 15 16 17 17 17 18 18 19 20 20 21 21 22 22
27 25 23 21 19 17 16 15 15 14 14 14 13 13 12 12 12 12 12 11 11 11 11 11 11 12 12 13 13 14 15 15 16 16 16 17 17 18 18 19 19 20 20
Wind_Direction
298 299 300 302 303 303 303 302 301 300 298 297 296 296 295 295 295 296 296 297 298 299 300 300 300 300 299 298 297 296 295 295 293 292 291 290 290 290 290 290 290 289 288
296 297 297 299 300 300 300 300 299 297 297 296 295 295 295 295 295 296 297 298 299 300 301 301 301 300 299 298 298 297 296 296 295 294 294 294 294 293 293 293 293 292 290
295 296 297 298 298 299 299 298 297 296 296 295 295 295 295 296 296 297 298 300 300 301 301 301 301 300 299 299 298 298 297 297 298 299 299 297 296 296 296 296 296 293 291
295 296 297 297 297 297 298 297 296 296 296 295 295 296 296 297 298 299 300 300 301 302 302 302 301 300 299 299 299 299 299 300 302 302 302 301 301 301 300 300 300 299 296
296 298 299 298 298 297 297 297 296 296 295 296 296 296 297 298 299 300 300 301 302 302 302 301 301 300 300 300 301 302 303 304 304 304 304 304 305 305 304 305 303 301 300
298 299 298 298 297 296 295 295 295 295 295 296 296 296 297 298 299 299 300 301 301 301 301 301 301 301 302 304 305 305 306 307 307 308 308 309 310 311 311 310 308 305 302
298 298 297 296 295 295 294 294 295 295 295 295 295 296 297 298 299 299 300 300 300 301 301 302 302 304 305 307 307 308 309 311 314 315 317 317 318 317 316 314 311 309 305
297 296 296 295 295 294 294 294 294 294 294 294 295 296 297 298 298 299 299 300 300 301 302 303 305 307 307 307 307 309 311 314 317 320 321 322 321 321 319 317 314 312 308
295 295 295 294 294 294 294 293 293 293 293 294 295 296 297 297 297 298 299 301 302 304 305 306 308 309 307 307 308 311 315 319 322 324 325 325 324 323 322 320 319 318 315
294 294 294 294 293 293 293 293 293 293 294 295 296 296 296 297 298 300 302 304 305 307 309 311 313 313 312 313 316 319 323 325 327 329 329 328 328 327 327 328 329 331 330
293 293 293 292 292 292 292 293 293 294 295 295 296 296 297 299 300 302 303 305 307 309 310 312 315 319 323 326 329 331 333 333 333 333 334 335 336 338 341 344 347 348 348
293 293 292 292 293 293 293 294 294 295 296 297 297 298 299 300 302 303 304 306 308 309 310 313 320 330 337 340 341 342 342 341 341 342 344 348 351 356 0 4 6 6 8
293 293 293 294 294 295 295 296 297 298 299 299 300 300 301 301 302 303 305 308 309 308 311 321 339 351 352 350 349 349 350 351 352 355 359 4 8 12 16 18 18 17 18
295 296 296 296 297 298 299 300 301 301 301 301 301 301 301 302 303 304 307 309 307 306 326 5 13 6 1 359 358 359 1 3 5 9 14 16 17 20 24 24 23 23 23
300 300 300 301 301 302 303 303 304 304 304 304 303 303 303 304 304 305 308 312 321 80 65 40 25 17 13 11 10 11 13 15 17 20 22 22 23 26 26 27 28 28 28
305 305 305 305 305 305 306 306 307 307 307 306 305 305 306 305 304 306 312 93 112 98 68 51 40 31 25 23 22 23 24 25 26 27 28 27 28 29 30 31 32 31 31
311 311 310 310 311 311 312 311 311 311 312 313 313 314 314 314 321 41 111 115 105 86 68 57 47 38 36 36 35 34 35 36 36 35 33 32 32 33 34 34 35 35 37
318 318 318 318 319 319 320 320 321 322 325 327 331 338 356 44 90 106 111 107 94 79 67 59 51 47 47 45 45 45 47 46 44 41 39 37 36 36 37 37 38 40 41
329 330 330 330 330 331 332 334 337 341 349 3 20 43 70 88 99 106 105 95 84 73 66 61 56 56 55 52 54 56 58 55 50 46 43 41 39 40 41 42 43 44 45
345 346 346 348 350 353 357 2 9 20 34 47 62 75 88 96 101 101 95 86 75 67 65 64 62 64 61 59 63 66 65 61 55 50 46 44 43 43 44 46 47 48 49
1 1 3 7 12 17 26 36 46 55 63 73 81 88 94 98 98 94 87 77 67 64 66 67 68 72 69 68 71 73 70 64 59 54 51 49 48 48 49 50 52 52 54
13 15 18 22 28 37 47 56 65 73 79 84 89 93 95 94 91 85 76 65 58 62 68 73 76 79 77 76 77 78 74 68 63 60 58 57 56 56 55 55 56 57 58
27 30 33 39 47 55 63 70 75 79 84 87 90 91 90 87 82 74 65 59 58 64 71 78 82 85 85 84 84 82 77 71 66 63 63 62 62 62 61 60 59 59 60
38 40 44 50 56 64 70 75 79 82 85 87 87 86 83 79 72 66 62 60 62 67 75 83 87 90 94 92 89 85 79 74 70 67 65 64 63 62 62 61 60 60 61
43 45 48 54 60 66 72 76 78 81 83 83 82 79 75 71 67 63 62 62 65 72 79 86 90 95 100 99 94 89 83 79 73 69 66 64 62 60 60 60 59 59 59
45 47 50 54 60 67 72 75 78 80 81 80 78 74 71 67 64 63 64 65 70 77 84 89 93 98 102 101 96 91 86 81 76 71 67 62 60 58 57 57 57 57 57
Height
5776 5773 5770 5767 5764 5761 5758 5755 5752 5749 5745 5742 5738 5733 5728 5723 5718 5713 5707 5701 5695 5688 5682 5675 5668 5662 5654 5647 5640 5633 5625 5619 5616 5612 5602 5593 5584 5576 5570 5563 5557 5552 5547
5766 5763 5760 5757 5754 5751 5748 5744 5741 5737 5733 5728 5724 5719 5714 5709 5703 5698 5692 5686 5679 5673 5666 5659 5653 5646 5639 5632 5624 5617 5609 5601 5596 5592 5584 5574 5565 5557 5551 5546 5540 5535 5531
5757 5753 5750 5746 5743 5740 5736 5732 5728 5724 5719 5714 5710 5704 5699 5693 5688 5682 5676 5670 5664 5658 5651 5645 5638 5631 5624 5616 5609 5601 5593 5585 5577 5572 5566 5557 5550 5543 5537 5533 5528 5524 5520
5746 5742 5739 5735 5731 5727 5723 5719 5714 5710 5705 5700 5694 5689 5683 5678 5672 5666 5661 5655 5649 5643 5637 5630 5623 5616 5609 5602 5594 5585 5578 5570 5562 5556 5550 5544 5538 5532 5528 5524 5520 5516 5512
5734 5730 5726 5722 5718 5714 5709 5705 5700 5695 5690 5685 5679 5674 5669 5663 5658 5653 5647 5642 5636 5629 5623 5616 5609 5602 5595 5587 5580 5572 5564 5558 5551 5546 5540 5535 5530 5525 5521 5518 5514 5511 5506
5721 5718 5713 5709 5705 5700 5696 5691 5686 5681 5676 5671 5666 5661 5655 5650 5645 5640 5635 5629 5623 5617 5610 5602 5595 5588 5581 5573 5566 5559 5553 5547 5543 5538 5534 5529 5525 5521 5517 5513 5509 5506 5502
5708 5705 5700 5696 5692 5687 5683 5678 5673 5668 5663 5658 5653 5648 5643 5638 5633 5628 5622 5616 5610 5604 5598 5590 5583 5576 5570 5563 5557 5551 5546 5541 5537 5533 5529 5525 5521 5517 5513 5509 5505 5501 5497
5695 5691 5687 5683 5678 5674 5669 5664 5660 5655 5650 5646 5641 5636 5632 5626 5621 5615 5610 5604 5598 5592 5586 5579 5573 5567 5561 5556 5551 5546 5541 5537 5534 5530 5526 5522 5518 5514 5509 5505 5501 5497 5492
5682 5678 5674 5669 5665 5660 5656 5651 5647 5642 5638 5634 5629 5624 5619 5614 5609 5604 5598 5592 5586 5581 5575 5570 5565 5559 5554 5550 5546 5543 5539 5535 5531 5528 5524 5519 5515 5510 5506 5501 5496 5492 5488
5669 5665 5660 5656 5652 5648 5643 5639 5635 5630 5626 5622 5617 5612 5608 5602 5598 5593 5588 5582 5577 5572 5567 5562 5557 5553 5550 5546 5543 5541 5537 5534 5530 5526 5522 5517 5512 5507 5502 5497 5493 5489 5484
5656 5652 5648 5644 5639 5635 5631 5627 5623 5619 5614 5610 5606 5601 5596 5592 5587 5583 5579 5575 5570 5566 5561 5557 5553 5550 5547 5544 5542 5539 5536 5533 5529 5525 5520 5515 5510 5504 5499 5495 5491 5487 5482
5644 5640 5636 5632 5628 5623 5619 5615 5611 5607 5603 5598 5594 5590 5586 5582 5578 5575 5571 5568 5564 5561 5557 5554 5551 5549 5546 5544 5541 5539 5536 5532 5528 5523 5518 5513 5508 5503 5499 5494 5491 5486 5482
5634 5630 5625 5621 5617 5613 5608 5604 5600 5596 5592 5588 5584 5580 5577 5574 5571 5568 5565 5562 5559 5557 5554 5552 5550 5548 5546 5544 5541 5539 5535 5531 5527 5523 5518 5513 5508 5504 5499 5495 5492 5487 5483
5624 5620 5615 5611 5607 5602 5598 5594 5590 5586 5582 5579 5575 5572 5569 5566 5564 5561 5559 5557 5556 5554 5553 5552 5550 5548 5546 5544 5542 5539 5535 5532 5527 5523 5518 5514 5509 5505 5501 5497 5493 5489 5485
5615 5611 5606 5602 5597 5593 5589 5585 5581 5578 5574 5571 5568 5565 5563 5560 5558 5556 5555 5554 5554 5553 5553 5552 5550 5549 5547 5545 5543 5539 5536 5533 5529 5524 5520 5516 5511 5507 5503 5499 5496 5492 5488
5607 5603 5598 5594 5589 5585 5581 5578 5574 5571 5568 5565 5562 5559 5557 5555 5554 5553 5553 5553 5553 5553 5553 5552 5551 5550 5548 5546 5544 5541 5538 5535 5531 5527 5523 5519 5514 5510 5506 5502 5499 5495 5491
5600 5596 5591 5587 5583 5579 5575 5571 5568 5565 5562 5559 5557 5555 5553 5552 5551 5552 5552 5553 5554 5554 5554 5553 5552 5551 5549 5548 5545 5543 5540 5537 5534 5530 5526 5522 5518 5514 5510 5506 5503 5499 5495
5595 5590 5586 5581 5577 5573 5570 5566 5563 5561 5558 5556 5554 5553 5551 5551 5551 5552 5553 5555 5556 5556 5555 5555 5554 5553 5551 5549 5547 5545 5543 5540 5537 5534 5531 5527 5523 5519 5515 5511 5507 5504 5500
5590 5586 5581 5577 5573 5570 5566 5563 5561 5558 5556 5555 5553 5553 5552 5553 5553 5555 5556 5557 5558 5557 5557 5556 5555 5554 5553 5552 5550 5548 5546 5544 5542 5539 5536 5533 5529 5525 5521 5517 5513 5510 5506
5587 5583 5579 5575 5571 5568 5565 5562 5560 5558 5557 5556 5555 5555 5555 5556 5557 5558 5559 5560 5560 5560 5559 5559 5558 5557 5556 5554 5553 5551 5550 5548 5546 5544 5541 5538 5535 5531 5527 5523 5520 5516 5513
5586 5582 5578 5575 5571 5568 5566 5563 5562 5560 5559 5558 5558 5559 5559 5560 5561 5562 5563 5563 5563 5562 5562 5561 5560 5560 5559 5558 5556 5555 5554 5552 5551 5549 5546 5544 5541 5537 5534 5531 5527 5524 5521
5587 5583 5579 5576 5573 5570 5568 5566 5565 5564 5563 5563 5563 5563 5564 5565 5566 5566 5566 5566 5565 5565 5564 5564 5563 5562 5562 5561 5560 5559 5558 5557 5555 5554 5551 5549 5547 5544 5541 5538 5535 5532 5529
5589 5585 5581 5578 5576 5574 5572 5570 5569 5568 5568 5568 5568 5569 5569 5570 5570 5570 5569 5569 5568 5567 5567 5566 5566 5566 5565 5565 5564 5564 5563 5562 5560 5559 5557 5555 5553 5551 5548 5546 5543 5540 5538
5592 5588 5585 5582 5579 5577 5576 5575 5574 5573 5573 5573 5573 5573 5573 5573 5573 5573 5572 5571 5571 5570 5570 5569 5569 5569 5569 5569 5568 5568 5567 5567 5566 5565 5563 5562 5560 5557 5555 5553 5551 5548 5546
5597 5592 5589 5586 5584 5582 5581 5580 5579 5578 5578 5578 5578 5578 5577 5577 5577 5576 5575 5574 5574 5573 5573 5573 5572 5572 5573 5573 5573 5573 5572 5572 5571 5570 5569 5568 5566 5564 5562 5560 5558 5556 5553
5602 5597 5594 5590 5588 5586 5585 5584 5583 5583 5582 5582 5582 5582 5581 5581 5580 5579 5578 5578 5577 5576 5576 5576 5576 5576 5576 5577 5577 5577 5577 5576 5576 5575 5574 5573 5571 5570 5568 5566 5564 5562 5560